Regional Weather Roundup
Issued by NWS

Home | Current Version | Previous Version | Graphics & Text | Print | Product List | Glossary Off
Versions: 1 2 3 4 5 6 7 8 9 10 11 12 13 14 15 16 17 18 19 20 21 22 23 24 25 26 27 28 29 30 31 32 33 34 35 36 37 38 39 40 41 42 43 44 45 46 47 48 49 50

000
ASUS43 KDMX 030207
RWRIA

WEATHER ROUNDUP FOR IOWA
NATIONAL WEATHER SERVICE DES MOINES IA
900 PM CDT SAT MAY 02 2015

NOTE: "FAIR" INDICATES FEW OR NO CLOUDS BELOW 12,000 FEET WITH NO
SIGNIFICANT WEATHER AND/OR OBSTRUCTIONS TO VISIBILITY.

* - THESE STATIONS ARE NOT NWS STATIONS...THUS NOT UNDER NWS
QUALITY CONTROL.  THEY ALSO DO NOT REPORT WEATHER SUCH
AS PRECIPITATION OR FOG.

IAZ001>003-012>014-020>022-031>034-043>046-030300-
   NORTHWEST IOWA

CITY           SKY/WX    TMP DP  RH WIND       PRES   REMARKS
CARROLL *      CLEAR     59  52  77 SE10      29.83S
CHEROKEE *     MOCLDY    66  54  63 S13       29.78S
DENISON *      MOCLDY    63  57  82 SE10      29.78S
LE MARS *      CLEAR     68  55  64 SE9       29.75F
ORANGE CITY *  CLEAR     66  54  63 SE7       29.76S
SHELDON *      CLEAR     66  55  68 SE12      29.75F
SIOUX CITY     CLEAR     68  54  60 SE12      29.74S
SPENCER        CLEAR     67  54  63 S13       29.78F
STORM LAKE *   PTCLDY    64  54  68 S16       29.81S
$$

IAZ055>058-069>071-079>083-090>094-030300-
   SOUTHWEST IOWA

CITY           SKY/WX    TMP DP  RH WIND       PRES   REMARKS
ATLANTIC *     CLEAR     63  55  77 S10       29.82S
AUDUBON *      CLEAR     61  54  77 S3        29.84S
CLARINDA *     CLEAR     64  57  77 S8        29.85S
COUNCIL BLFS * CLEAR     64  61  88 SE16G24   29.78S
CRESTON *      CLEAR     59  54  82 S13       29.87S
HARLAN  *      PTCLDY    64  59  82 S13       29.84R
LAMONI         CLEAR     60  54  80 SE8       29.90R
RED OAK *      CLEAR     64  57  77 S10       29.82S
SHENANDOAH *   CLEAR     66  57  72 SE16      29.82R
$$

IAZ047>049-059>061-072>074-084-030300-
   CENTRAL IOWA

CITY           SKY/WX    TMP DP  RH WIND       PRES   REMARKS
AMES           CLEAR     60  53  77 S10       29.86S
ANKENY *       CLEAR     61  55  82 S9G15     29.88S
CHARITON *     PTCLDY    59  54  82 SE12      29.90R
DES MOINES     PTCLDY    62  55  77 SE9       29.88S
GRINNELL*      DRIZZLE   59  54  82 SE10      29.91S
KNOXVILLE *    CLEAR     59  54  82 SE8       29.89S
MARSHALLTOWN   CLOUDY    62  52  69 S14       29.88S
PELLA *        PTCLDY    57  57 100 SE9       29.92S
PERRY *          N/A     59  54  82 SE10      29.85F
$$

IAZ004>006-015-016-023>025-035-036-030300-
   NORTH CENTRAL IOWA

CITY           SKY/WX    TMP DP  RH WIND       PRES   REMARKS
ALGONA *       PTCLDY    64  54  68 S15       29.83S
CLARION *      CLEAR     63  52  67 S16       29.86S
ESTHERVILLE    CLEAR     65  53  65 S17       29.78S
FORT DODGE *   CLEAR     63  50  63 S14       29.86S
MASON CITY     CLEAR     64  50  60 S14       29.86R
FOREST CITY *  CLEAR     63  50  63 S15       29.84R
IOWA FALLS *     N/A     63  52  67 SE12      29.89R
$$

IAZ007>011-017>019-026>030-037>042-050>054-066-030300-
   NORTHEAST IOWA

CITY           SKY/WX    TMP DP  RH WIND       PRES   REMARKS
CEDAR RAPIDS   PTCLDY    63  54  72 S10       29.93R
CHARLES CITY * CLEAR     64  52  63 S13       29.88R
CLINTON *        N/A     61  48  63 SW8       29.97S
DECORAH *      CLEAR     64  50  59 S8        29.88R
DUBUQUE        PTCLDY    61  49  64 S10       29.93R
MONTICELLO *   CLEAR     63  52  67 S6        29.93R
OELWEIN *      CLEAR     61  50  67 S10       29.91R
WATERLOO       MOCLDY    63  52  67 S9        29.89R
$$

IAZ064-065-067-068-078-030300-
   EAST CENTRAL IOWA

CITY           SKY/WX    TMP DP  RH WIND       PRES   REMARKS
DAVENPORT      CLOUDY    65  47  52 S8        29.95S
IOWA CITY      CLOUDY    64  53  67 S9        29.95R
MT. PLEASANT * CLOUDY    59  52  77 SE5       29.96R
MUSCATINE *    CLOUDY    64  52  63 S8        29.95R
QUAD CITIES    CLOUDY    66  46  48 SW5       29.95R
$$

IAZ062-063-075>077-085>089-095>099-030300-
   SOUTHEAST IOWA

CITY           SKY/WX    TMP DP  RH WIND       PRES   REMARKS
BURLINGTON     MOCLDY    62  49  62 S8        29.94S
FAIRFIELD *    MOCLDY    57  55  94 NE7       29.95R
FORT MADISON * CLOUDY    63  48  59 S8        29.95S
KEOKUK *       CLOUDY    59  52  77 S7        29.95S
OSKALOOSA *    CLOUDY    57  55  94 E7        29.94S
CENTERVILLE *  CLEAR     55  54  94 SE8       29.94S
OTTUMWA        CLOUDY    59  56  89 E6        29.93R
WASHINGTON *   CLOUDY    61  59  94 S8        29.96R
$$

ABBREVIATIONS USED IN REMARKS
   TC - TEMPERATURES IN CELSIUS
  WCI - WIND CHILL INDEX
   HX - HEAT INDEX
  VSB - VISIBILITY
$$




USA.gov is the U.S. government's official web portal to all federal, state and local government web resources and services.